This is the latest recevied weather packets stored in our database for station/object C31FR-13. If no packets are shown the sender has not sent any weather packets the latest 10 day(s).
| Time | Temp. | Humidity | Pressure | Rain* | Wind** | Luminosity | Snow |
|---|---|---|---|---|---|---|---|
| 1788186662 | 27.78° C | 32% | 1020.6 hPa | - | - | - | - |
| 1788184562 | 27.22° C | 34% | 1020.8 hPa | - | - | - | - |
| 1788183963 | 27.22° C | 35% | 1020.8 hPa | - | - | - | - |
| 1788182762 | 26.67° C | 36% | 1021 hPa | - | - | - | - |
| 1788182162 | 26.67° C | 36% | 1021.1 hPa | - | - | - | - |
| 1788180362 | 26.67° C | 36% | 1021.1 hPa | - | - | - | - |
| 1788179763 | 26.11° C | 36% | 1021.2 hPa | - | - | - | - |
| 1788179163 | 26.11° C | 37% | 1021.3 hPa | - | - | - | - |
| 1788177962 | 25.56° C | 37% | 1021.4 hPa | - | - | - | - |
| 1788177362 | 25.56° C | 37% | 1021.5 hPa | - | - | - | - |
| 1788175863 | 25° C | 38% | 1021.6 hPa | - | - | - | - |
| 1788172262 | 23.89° C | 38% | 1021.8 hPa | - | - | - | - |
| 1788171962 | 23.89° C | 38% | 1021.8 hPa | - | - | - | - |
| 1788130563 | 21.67° C | 52% | 1021.9 hPa | - | - | - | - |
| 1788129062 | 21.11° C | 52% | 1021.6 hPa | - | - | - | - |
| 1788128762 | 21.67° C | 52% | 1021.5 hPa | - | - | - | - |
| 1788127263 | 21.67° C | 50% | 1021.4 hPa | - | - | - | - |
| 1788126362 | 22.22° C | 49% | 1021.2 hPa | - | - | - | - |
| 1788125763 | 21.67° C | 49% | 1021.2 hPa | - | - | - | - |
| 1788125462 | 21.67° C | 49% | 1021.1 hPa | - | - | - | - |
| 1788125163 | 22.22° C | 48% | 1021.1 hPa | - | - | - | - |
| 1788124563 | 22.22° C | 48% | 1021.1 hPa | - | - | - | - |
| 1788123062 | 22.22° C | 47% | 1020.9 hPa | - | - | - | - |
| 1788122762 | 22.22° C | 47% | 1020.9 hPa | - | - | - | - |
| 1788122463 | 22.22° C | 47% | 1020.9 hPa | - | - | - | - |
* Rain since midnight (hover to see other rain measurements)
** Current wind speed in m/s (hover to see current wind gust speed)